Cando, ND

1:21 AM CDT on March 25, 2017 (GMT -0500)
Cando

Weather History for K9D7 - October, 2013

Change the Weather History Date:

Saturday, October 5, 2013

  Actual Average (KDVL) Record (KDVL)
Temperature  
Mean Temperature 42 °F -  
Max Temperature 50 °F 57 °F 85 °F (1949)
Min Temperature 32 °F 37 °F 24 °F (1952)
Degree Days  
Heating Degree Days 24    
Moisture  
Dew Point 32 °F    
Average Humidity 74    
Maximum Humidity 93    
Minimum Humidity 58    
Precipitation  
Precipitation 0.01 in - - ()
Sea Level Pressure  
Sea Level Pressure 30.06 in    
Wind  
Wind Speed 19 mph (NNE)    
Max Wind Speed 28 mph    
Max Gust Speed 33 mph    
Visibility 10 miles    
Events Rain    
Averages and records for this station are not official NWS values.
T = Trace of Precipitation, MM = Missing Value Source: NWS Daily Summary

Daily Weather History Graph

Daily Weather History Graph

Search for Another Location

Airport or City:

Trip Planner

Search our weather history database for the weather conditions in past years. The results will help you decide how hot, cold, wet, or windy it might be!

Date:

Astronomy

Oct. 05, 2013 Rise Set
Actual Time 7:42 AM CDT 7:07 PM CDT
Civil Twilight 7:11 AM CDT 7:38 PM CDT
Nautical Twilight 6:34 AM CDT 8:14 PM CDT
Astronomical Twilight 5:58 AM CDT 8:51 PM CDT
Moon 8:29 AM CDT (10/5) 7:19 PM CDT (10/5)
Length of Visible Light 12h 27m
Length of Day
11h 24m
New Moon, 1% of the Moon is Illuminated
Oct 5
New Moon
Oct 11
First Quarter
Oct 18
Full
Oct 26
Last Quarter
Nov 3
New

Hourly Weather History & Observations

Time (CDT) Temp. Windchill Dew Point Humidity Pressure Visibility Wind Dir Wind Speed Gust Speed Precip Events Conditions
12:15 AM 39.2 °F 29.6 °F 30.2 °F 70% 30.20 in 10.0 mi NE 19.6 mph 25.3 mph N/A   Overcast
12:35 AM 39.2 °F 30.2 °F 28.4 °F 65% 30.19 in 10.0 mi NE 17.3 mph 28.8 mph N/A   Overcast
12:55 AM 39.2 °F 29.3 °F 28.4 °F 65% 30.17 in 10.0 mi NE 20.7 mph 28.8 mph N/A   Overcast
1:15 AM 37.4 °F 28.2 °F 28.4 °F 70% 30.17 in 10.0 mi NE 16.1 mph 27.6 mph N/A   Overcast
1:35 AM 37.4 °F 27.8 °F 30.2 °F 75% 30.17 in 10.0 mi NE 17.3 mph 26.5 mph N/A   Overcast
1:55 AM 37.4 °F 27.2 °F 30.2 °F 75% 30.16 in 10.0 mi NE 19.6 mph 27.6 mph N/A   Overcast
2:15 AM 37.4 °F 27.2 °F 28.4 °F 70% 30.15 in 10.0 mi NE 19.6 mph 27.6 mph N/A   Overcast
2:35 AM 37.4 °F 27.2 °F 28.4 °F 70% 30.15 in 10.0 mi NE 19.6 mph 28.8 mph N/A   Overcast
2:55 AM 37.4 °F 26.6 °F 28.4 °F 70% 30.14 in 10.0 mi NNE 21.9 mph 27.6 mph N/A   Overcast
3:15 AM 37.4 °F 26.9 °F 28.4 °F 70% 30.14 in 10.0 mi NNE 20.7 mph 27.6 mph N/A   Mostly Cloudy
3:35 AM 37.4 °F 27.2 °F 30.2 °F 75% 30.13 in 10.0 mi NNE 19.6 mph 26.5 mph N/A   Overcast
3:55 AM 37.4 °F 26.1 °F 30.2 °F 75% 30.12 in 10.0 mi NNE 24.2 mph 28.8 mph N/A   Overcast
4:15 AM 35.6 °F 24.5 °F 30.2 °F 81% 30.12 in 10.0 mi NNE 20.7 mph 27.6 mph N/A   Mostly Cloudy
4:35 AM 35.6 °F 25.2 °F 30.2 °F 81% 30.12 in 10.0 mi NNE 18.4 mph 29.9 mph N/A   Mostly Cloudy
4:55 AM 37.4 °F 26.4 °F 30.2 °F 75% 30.11 in 10.0 mi NNE 23.0 mph 27.6 mph N/A   Overcast
5:15 AM 35.6 °F 24.2 °F 30.2 °F 81% 30.10 in 10.0 mi NNE 21.9 mph 29.9 mph N/A   Overcast
5:35 AM 35.6 °F 24.5 °F 30.2 °F 81% 30.09 in 10.0 mi NNE 20.7 mph 33.4 mph N/A   Overcast
5:55 AM 35.6 °F 23.7 °F 30.2 °F 81% 30.08 in 10.0 mi NNE 24.2 mph 33.4 mph N/A   Overcast
6:15 AM 35.6 °F 24.0 °F 30.2 °F 81% 30.08 in 10.0 mi NNE 23.0 mph 33.4 mph N/A   Overcast
6:35 AM 35.6 °F 24.2 °F 30.2 °F 81% 30.07 in 10.0 mi NNE 21.9 mph 29.9 mph N/A   Mostly Cloudy
6:55 AM 35.6 °F 24.2 °F 30.2 °F 81% 30.08 in 10.0 mi NNE 21.9 mph 31.1 mph N/A   Mostly Cloudy
7:15 AM 35.6 °F 24.8 °F 30.2 °F 81% 30.07 in 10.0 mi NNE 19.6 mph 29.9 mph N/A   Overcast
7:35 AM 35.6 °F 24.8 °F 30.2 °F 81% 30.09 in 10.0 mi NNE 19.6 mph 25.3 mph N/A   Overcast
7:55 AM 35.6 °F 24.8 °F 30.2 °F 81% 30.10 in 10.0 mi NNE 19.6 mph 28.8 mph N/A   Overcast
8:15 AM 35.6 °F 24.5 °F 32.0 °F 87% 30.09 in 10.0 mi NNE 20.7 mph 27.6 mph N/A   Mostly Cloudy
8:35 AM 35.6 °F 24.5 °F 30.2 °F 81% 30.09 in 10.0 mi NNE 20.7 mph 28.8 mph N/A   Mostly Cloudy
8:55 AM 35.6 °F 24.2 °F 30.2 °F 81% 30.08 in 10.0 mi NNE 21.9 mph 33.4 mph N/A   Overcast
9:15 AM 35.6 °F 23.7 °F 30.2 °F 81% 30.08 in 10.0 mi NNE 24.2 mph 32.2 mph N/A   Overcast
9:35 AM 35.6 °F 23.0 °F 30.2 °F 81% 30.08 in 10.0 mi NNE 27.6 mph 33.4 mph N/A   Overcast
9:55 AM 35.6 °F 23.2 °F 30.2 °F 81% 30.08 in 10.0 mi NNE 26.5 mph 33.4 mph N/A   Overcast
10:15 AM 35.6 °F 23.4 °F 30.2 °F 81% 30.08 in 10.0 mi NNE 25.3 mph 32.2 mph N/A   Overcast
10:35 AM 37.4 °F 25.9 °F 30.2 °F 75% 30.08 in 10.0 mi North 25.3 mph 32.2 mph N/A   Overcast
10:55 AM 37.4 °F 25.4 °F 30.2 °F 75% 30.08 in 10.0 mi North 27.6 mph 33.4 mph N/A   Overcast
11:15 AM 37.4 °F 26.4 °F 32.0 °F 81% 30.07 in 10.0 mi North 23.0 mph 32.2 mph N/A   Overcast
11:35 AM 37.4 °F 25.6 °F 32.0 °F 81% 30.07 in 10.0 mi North 26.5 mph 33.4 mph N/A   Overcast
11:55 AM 37.4 °F 25.9 °F 32.0 °F 81% 30.07 in 10.0 mi North 25.3 mph 31.1 mph N/A   Overcast
12:15 PM 39.2 °F 29.3 °F 32.0 °F 75% 30.07 in 10.0 mi NNE 20.7 mph 29.9 mph N/A   Overcast
12:35 PM 39.2 °F 29.8 °F 32.0 °F 75% 30.07 in 10.0 mi North 18.4 mph 25.3 mph N/A   Overcast
12:55 PM 39.2 °F 29.6 °F 32.0 °F 75% 30.06 in 10.0 mi NNE 19.6 mph 27.6 mph N/A   Overcast
1:15 PM 41.0 °F 31.4 °F 32.0 °F 70% 30.06 in 10.0 mi NNE 21.9 mph 28.8 mph N/A   Overcast
1:35 PM 41.0 °F 31.9 °F 32.0 °F 70% 30.06 in 10.0 mi NNE 19.6 mph 27.6 mph N/A Rain Light Rain
1:55 PM 39.2 °F 29.6 °F 35.6 °F 87% 30.04 in 4.0 mi North 19.6 mph 23.0 mph 0.01 in Rain Light Rain
2:15 PM 41.0 °F 32.2 °F 37.4 °F 87% 30.02 in 9.0 mi NNE 18.4 mph 25.3 mph N/A Rain Light Rain
2:35 PM 41.0 °F 31.4 °F 35.6 °F 81% 30.01 in 10.0 mi North 21.9 mph 33.4 mph N/A Rain Light Rain
2:55 PM 42.8 °F 33.5 °F 35.6 °F 76% 29.99 in 10.0 mi North 23.0 mph 31.1 mph N/A   Mostly Cloudy
3:15 PM 44.6 °F 35.5 °F 35.6 °F 71% 29.98 in 10.0 mi North 25.3 mph 31.1 mph N/A   Partly Cloudy
3:35 PM 48.2 °F - 37.4 °F 66% 29.98 in 10.0 mi NNE 23.0 mph 32.2 mph N/A   Clear
3:55 PM 48.2 °F - 35.6 °F 62% 29.98 in 10.0 mi North 26.5 mph 32.2 mph N/A   Clear
4:15 PM 50.0 °F - 35.6 °F 58% 29.98 in 10.0 mi NNE 21.9 mph 29.9 mph N/A   Clear
4:35 PM 50.0 °F - 35.6 °F 58% 29.98 in 10.0 mi NNE 24.2 mph 29.9 mph N/A   Clear
4:55 PM 50.0 °F - 35.6 °F 58% 29.98 in 10.0 mi North 20.7 mph 27.6 mph N/A   Partly Cloudy
5:15 PM 50.0 °F - 35.6 °F 58% 29.99 in 10.0 mi NNE 21.9 mph 28.8 mph N/A   Mostly Cloudy
5:35 PM 50.0 °F - 35.6 °F 58% 29.98 in 10.0 mi NNE 19.6 mph 25.3 mph N/A   Overcast
5:55 PM 48.2 °F - 35.6 °F 62% 29.99 in 10.0 mi NNE 19.6 mph 26.5 mph N/A   Overcast
6:15 PM 50.0 °F - 35.6 °F 58% 29.99 in 10.0 mi NNE 17.3 mph 23.0 mph N/A   Overcast
6:35 PM 48.2 °F - 35.6 °F 62% 29.99 in 10.0 mi NNE 12.7 mph 20.7 mph N/A   Mostly Cloudy
6:55 PM 46.4 °F 41.1 °F 35.6 °F 66% 30.01 in 10.0 mi North 11.5 mph - N/A   Scattered Clouds
7:15 PM 46.4 °F 40.4 °F 35.6 °F 66% 30.02 in 10.0 mi North 13.8 mph - N/A   Overcast
7:35 PM 44.6 °F 38.4 °F 33.8 °F 66% 30.02 in 10.0 mi North 12.7 mph 19.6 mph N/A   Overcast
7:55 PM 44.6 °F 38.8 °F 33.8 °F 66% 30.02 in 10.0 mi North 11.5 mph - N/A   Overcast
8:15 PM 44.6 °F 38.4 °F 33.8 °F 66% 30.02 in 10.0 mi North 12.7 mph - N/A   Overcast
8:35 PM 42.8 °F 37.0 °F 32.0 °F 66% 30.02 in 10.0 mi NNE 10.4 mph - N/A   Mostly Cloudy
8:55 PM 41.0 °F 35.2 °F 32.0 °F 70% 30.02 in 10.0 mi NNE 9.2 mph - N/A   Scattered Clouds
9:15 PM 39.2 °F 32.5 °F 32.0 °F 75% 30.01 in 10.0 mi North 10.4 mph - N/A   Scattered Clouds
9:35 PM 39.2 °F 33.0 °F 32.0 °F 75% 29.99 in 10.0 mi North 9.2 mph - N/A   Clear
9:55 PM 37.4 °F 31.4 °F 32.0 °F 81% 30.00 in 10.0 mi North 8.1 mph - N/A   Clear
10:15 PM 37.4 °F 30.8 °F 32.0 °F 81% 30.00 in 10.0 mi North 9.2 mph - N/A   Clear
10:35 PM 37.4 °F 30.8 °F 32.0 °F 81% 30.00 in 10.0 mi North 9.2 mph - N/A   Clear
10:55 PM 37.4 °F 30.8 °F 32.0 °F 81% 30.01 in 10.0 mi North 9.2 mph - N/A   Clear
11:15 PM 35.6 °F 29.9 °F 32.0 °F 87% 30.01 in 10.0 mi North 6.9 mph - N/A   Clear
11:35 PM 33.8 °F 28.6 °F 30.2 °F 87% 29.99 in 10.0 mi North 5.8 mph - N/A   Clear
11:55 PM 32.0 °F 27.5 °F 30.2 °F 93% 30.00 in 10.0 mi NNW 4.6 mph - N/A   Clear